Regional Weather Roundup
Issued by NWS Austin/San Antonio, TX

Home | Current Version | Previous Version | Text Only | Print | Product List | Glossary On
Versions: 1 2 3 4 5 6 7 8 9 10 11 12 13 14 15 16 17 18 19 20 21 22 23 24 25 26 27 28 29 30 31 32 33 34 35 36 37 38 39 40 41 42 43 44 45 46 47 48 49 50
565
ASUS44 KEWX 241402
RWREWX
SOUTH TEXAS REGIONAL WEATHER ROUNDUP
NATIONAL WEATHER SERVICE AUSTIN/SAN ANTONIO TX
900 AM CDT SAT AUG 24 2019

NOTE: "FAIR" INDICATED FEW OR NO CLOUDS BELOW 12,000 FEET WITH NO
SIGNIFICANT WEATHER AND/OR OBSTRUCTIONS TO VISIBILITY.

* - THESE STATIONS ARE NOT NWS OR FAA STATIONS...AND ARE NOT SUBJECT
    TO NWS AND FAA QUALITY CONTROL.

TXZ171-172-183>190-241500-
TEXAS HILL COUNTRY AND EDWARDS PLATEAU

CITY           SKY/WX    TMP DP  RH WIND       PRES   REMARKS
JUNCTION       MOSUNNY   76  73  91 SE3       30.00R
*LLANO         MOSUNNY   79  75  89 CALM      30.00S
BURNET         PTSUNNY   79  72  79 CALM      29.99R
*HORSESHOE BAY SUNNY     79  73  83 S3        29.98R
*KERRVILLE     PTSUNNY   76  73  88 CALM      29.99S
*FREDERICKSBRG CLOUDY    74  72  92 SE3       30.00R
*ROCKSPRINGS   PTSUNNY   73  70  88 SE3       30.06S
*BOERNE        CLOUDY    75  75 100 SE3       30.00R
*CASTROVILLE   CLOUDY    80  75  84 E5        29.96R
HONDO          MOSUNNY   80  74  81 SE7       29.95R
*UVALDE        SUNNY     76  75  97 NE5       29.95S
DEL RIO        SUNNY     79  72  79 E7        29.92S
LAUGHLIN AFB   SUNNY     79  72  79 SE6       29.93R
SPOFFORD       SUNNY     78  74  86 SE7       29.87S
*EAGLE PASS    SUNNY     79  72  78 E8        29.92F
CARRIZO SPRGS  SUNNY     77  73  88 CALM      29.91S
$$

TXZ173-191>194-202-209-217>225-228-241500-
CENTRAL AND SOUTH CENTRAL TEXAS

CITY           SKY/WX    TMP DP  RH WIND       PRES   REMARKS
GEORGETOWN     PTSUNNY   80  74  81 S3        29.97R
AUSTIN/BERGSTM CLOUDY    80  75  84 CALM      29.94R
AUSTIN/MABRY   CLOUDY    80  74  81 S3        29.96R
*AUSTIN/EXEC   PTSUNNY   79  75  89 S3        29.96R
*LAGO VISTA    PTSUNNY   79  74  85 S3        29.98R
SAN MARCOS     CLOUDY    78  75  90 SE3       29.96R
NEW BRAUNFELS  CLOUDY    78  74  87 NE3       29.95R
RANDOLPH AFB   CLOUDY    78  74  87 E3        29.96R
SEGUIN         CLOUDY    78  75  91 E3        29.99R
KELLY FIELD    PTSUNNY   81  75  82 CALM      29.94R
SAN ANTONIO    CLOUDY    79  74  84 SE3       29.96R
STINSON FIELD  CLOUDY    82  76  81 VRB3      29.93R
PLEASANTON     SUNNY     80  75  84 CALM      29.93S
*LA GRANGE     MOSUNNY   81  80  95 SE3       29.92R HX  92
*GIDDINGS      SUNNY     81  77  88 E5        29.95R
*GONZALES      PTSUNNY   79  77  95 E5        29.94R
$$

TXZ163>164-176>182-195>201-210>213-226-227-235-241500-
SOUTHEAST TEXAS

CITY           SKY/WX    TMP DP  RH WIND       PRES   REMARKS
COLLEGE STN    SUNNY     81  75  82 E6        29.94R
*BRYAN         SUNNY     82  78  88 SE6       29.95S HX  92
*CALDWELL      PTSUNNY   80  75  86 E7        29.95R
*CROCKETT      CLOUDY    75  75 100 E6        29.98S FOG
*BRENHAM       SUNNY     81  79  94 E5        29.94F HX  91
HUNTSVILLE     CLOUDY    77  75  93 E3        29.95S
CONROE         CLOUDY    77  75  93 NE6       29.95R
HOUSTON BUSH   PTSUNNY   79  76  90 E7        29.93R
HOUSTON HOBBY  PTSUNNY   82  75  79 NE5       29.93R
*HOUSTON SW AP CLOUDY    79  76  92 NE3       29.94R
PEARLAND       PTSUNNY   80  76  87 E5        29.95R
HOUSTON HOOKS  PTSUNNY   80  74  81 E6        29.94R
ELLINGTON FLD  NOT AVBL
SUGAR LAND     PTSUNNY   81  77  88 E8        29.93R
*HOUSTON EXEC  FAIR      82  77  83 E8        29.94S HX  91
*CLEVELAND MUN CLOUDY    76  76 100 CALM      29.95S FOG
*WHARTON       SUNNY     77  76  97 CALM      29.94R
*COLUMBUS      FAIR      79  75  87 E3        29.94S
*EAGLE LAKE    SUNNY     82  79  91 NE3       29.93S HX  91
$$

TXZ214>216-236>238-241500-
THE UPPER TEXAS COAST

CITY           SKY/WX    TMP DP  RH WIND       PRES   REMARKS
*ORANGE        CLOUDY    80  79  98 E8G16     29.96R
PORT ARTHUR    CLOUDY    81  77  88 NE6       29.93R
GALVESTON      LGT RAIN  82  78  88 N9        29.93R HX  91
ANGLETON       PTSUNNY   78  76  93 CALM      29.93R
*BAY CITY      SUNNY     80  79  97 NE5       29.92S
PALACIOS       MOSUNNY   85  76  74 N9        29.90S HX  94
$$

TXZ229>234-239>247-241500-
TEXAS COASTAL BEND AND RIO GRANDE PLAINS

CITY           SKY/WX    TMP DP  RH WIND       PRES   REMARKS
VICTORIA       MOSUNNY   80  77  90 NE9       29.93R
*BEEVILLE      NOT AVBL
ROCKPORT       MOSUNNY   84  78  82 S5        29.90R HAZE    HX  95
*PORT ARANSAS  PTSUNNY   85  80  85 SE6       29.91R HX  99
*PORT LAVACA   MOSUNNY   82  80  92 NE6       29.92S HX  94
*INGLESIDE     MOSUNNY   86  80  84 S3        29.90R HX 101
CORPUS CHRISTI PTSUNNY   83  80  91 SE5       29.89R HX  95
CORPUS NAS     MOSUNNY   85  82  91 S6        29.89R HX 102
*ROBSTOWN      SUNNY     82  78  89 CALM      29.89S HX  91
ALICE          MOSUNNY   85  78  80 E3        29.90R HX  96
KINGSVILLE NAS SUNNY     84  79  85 E6        29.89R HX  96
COTULLA        SUNNY     83  72  69 VRB5      29.91S
LAREDO         SUNNY     83  73  72 NE7       29.90R
$$

TXZ248>255-241500-
DEEP SOUTH TEXAS

CITY           SKY/WX    TMP DP  RH WIND       PRES   REMARKS
BROWNSVILLE    FAIR      85  83  94 SE6       29.87R HX 104
PORT ISABEL    FAIR      84  80  88 S8        29.87R FOG     HX  97
HARLINGEN      SUNNY     85  80  85 SE8       29.86S HX  99
*HEBBRONVILLE  MOSUNNY   79  75  85 CALM      29.92R
MCALLEN        SUNNY     85  77  77 SE9       29.87S HX  95
*WESLACO       SUNNY     86  77  75 S10       29.86S HX  97
FALFURRIAS     SUNNY     85  79  83 E3        29.88R HX  97
EDINBURG       FAIR      88  78  72 SE8       29.87R HX 101
*ZAPATA        FAIR      83  73  71 E3        29.90S HX  90
$$

TXZ213>215-236>238-242>244-246-247-251-254-255-241500-
CMAN STATIONS

STATION/POSITION TIME  TEMP    WIND        PRES    WAVE
                       AIR SEA DIR/SP/G            HT/PER
                 (UTC) (F)     (DEG/KT/KT) (MB)    (FT/S)
SABINE PASS      1318   79 88   40/ 10/ 13 1014.8
NORTH JETTY/GLS  1318   81 85   60/ 10/ 11 1012.1
EAGLE POINT      1318   81 85   20/  7/ 11 1012.2
MORGANS POINT    1318   79 85   20/  7/  8 1013.2
PORT O`CONNOR    1318   82 87  340/  7/  7 1012.6
PORT ARANSAS     1300   83 86  180/  6/  7 1011.6
MALAQUITE BEACH  1318   85 87  140/  7/  8 1011.5
BAFFIN BAY       1318   83 87  120/  7/ 10 1011.8
PORT ISABEL      1324   82 82  150/  4/  6 1011.7
$$




USA.gov is the U.S. government's official web portal to all federal, state and local government web resources and services.